TimeMDT,TemperatureF,Dew PointF,Humidity,Sea Level PressureIn,VisibilityMPH,Wind Direction,Wind SpeedMPH,Gust SpeedMPH,PrecipitationIn,Events,Conditions,WindDirDegrees,DateUTC
12:15 AM,26.6,15.8,64,30.16,10.0,North,19.6,-,N/A,,Overcast,360,2014-04-13 06:15:00
12:35 AM,26.6,15.8,64,30.16,10.0,NNW,20.7,25.3,N/A,,Overcast,340,2014-04-13 06:35:00
12:55 AM,26.6,15.8,64,30.17,10.0,North,12.7,-,N/A,,Overcast,350,2014-04-13 06:55:00
1:15 AM,26.6,15.8,64,30.18,10.0,North,16.1,-,N/A,,Overcast,360,2014-04-13 07:15:00
1:35 AM,26.6,15.8,64,30.19,10.0,NNW,16.1,21.9,N/A,,Overcast,340,2014-04-13 07:35:00
1:55 AM,26.6,15.8,64,30.19,10.0,NNW,16.1,23.0,N/A,,Overcast,340,2014-04-13 07:55:00
2:35 AM,24.8,15.8,69,30.19,10.0,North,16.1,23.0,N/A,,Overcast,350,2014-04-13 08:35:00
2:55 AM,24.8,15.8,69,30.19,10.0,North,13.8,20.7,N/A,,Overcast,350,2014-04-13 08:55:00
3:15 AM,24.8,15.8,69,30.19,10.0,North,16.1,-,N/A,,Overcast,360,2014-04-13 09:15:00
3:35 AM,24.8,15.8,69,30.19,10.0,North,20.7,-,N/A,,Overcast,350,2014-04-13 09:35:00
3:55 AM,24.8,15.8,69,30.20,10.0,North,18.4,-,N/A,,Overcast,360,2014-04-13 09:55:00
4:15 AM,24.8,15.8,69,30.20,10.0,North,13.8,19.6,N/A,,Overcast,360,2014-04-13 10:15:00
4:35 AM,24.8,14.0,64,30.21,10.0,North,17.3,-,N/A,,Overcast,350,2014-04-13 10:35:00
4:55 AM,24.8,14.0,64,30.21,10.0,North,15.0,-,N/A,,Overcast,350,2014-04-13 10:55:00
5:15 AM,24.8,15.8,69,30.21,10.0,North,15.0,-,N/A,,Overcast,10,2014-04-13 11:15:00
5:35 AM,24.8,15.8,69,30.22,10.0,North,10.4,-,N/A,,Overcast,350,2014-04-13 11:35:00
5:55 AM,24.8,14.0,64,30.22,10.0,North,13.8,23.0,N/A,,Overcast,350,2014-04-13 11:55:00
6:15 AM,24.8,14.0,64,30.23,10.0,North,12.7,-,N/A,,Overcast,360,2014-04-13 12:15:00
6:35 AM,24.8,14.0,64,30.23,10.0,North,8.1,-,N/A,,Overcast,360,2014-04-13 12:35:00
6:55 AM,23.0,14.0,68,30.24,10.0,North,8.1,-,N/A,,Mostly Cloudy,350,2014-04-13 12:55:00
7:15 AM,23.0,15.8,74,30.25,10.0,North,5.8,-,N/A,,Partly Cloudy,360,2014-04-13 13:15:00
7:35 AM,24.8,15.8,69,30.27,10.0,North,6.9,-,N/A,,Clear,10,2014-04-13 13:35:00
7:55 AM,24.8,14.0,64,30.29,10.0,North,6.9,-,N/A,,Clear,10,2014-04-13 13:55:00
8:15 AM,24.8,15.8,69,30.30,10.0,NNW,9.2,-,N/A,,Scattered Clouds,340,2014-04-13 14:15:00
8:35 AM,26.6,15.8,64,30.30,10.0,North,8.1,17.3,N/A,,Partly Cloudy,360,2014-04-13 14:35:00
8:55 AM,26.6,15.8,64,30.30,10.0,North,10.4,-,N/A,,Scattered Clouds,10,2014-04-13 14:55:00
9:35 AM,28.4,14.0,55,30.30,10.0,NNE,10.4,-,N/A,,Overcast,20,2014-04-13 15:35:00
10:15 AM,28.4,12.2,51,30.30,10.0,North,12.7,16.1,N/A,,Scattered Clouds,360,2014-04-13 16:15:00
10:35 AM,30.2,12.2,47,30.30,10.0,North,13.8,19.6,N/A,,Mostly Cloudy,350,2014-04-13 16:35:00
10:55 AM,30.2,12.2,47,30.29,10.0,NW,10.4,19.6,N/A,,Mostly Cloudy,320,2014-04-13 16:55:00
11:35 AM,33.8,12.2,41,30.28,10.0,North,15.0,20.7,N/A,,Mostly Cloudy,350,2014-04-13 17:35:00
11:55 AM,33.8,12.2,41,30.28,10.0,NNW,12.7,23.0,N/A,,Mostly Cloudy,330,2014-04-13 17:55:00
12:15 PM,35.6,12.2,38,30.28,10.0,North,13.8,20.7,N/A,,Mostly Cloudy,350,2014-04-13 18:15:00
12:35 PM,35.6,10.4,35,30.27,10.0,NW,16.1,24.2,N/A,,Mostly Cloudy,320,2014-04-13 18:35:00
12:55 PM,35.6,10.4,35,30.27,10.0,North,16.1,23.0,N/A,,Mostly Cloudy,350,2014-04-13 18:55:00
1:15 PM,35.6,10.4,35,30.27,10.0,North,15.0,18.4,N/A,,Mostly Cloudy,350,2014-04-13 19:15:00
1:35 PM,35.6,12.2,38,30.27,10.0,NNW,20.7,25.3,N/A,,Overcast,340,2014-04-13 19:35:00
1:55 PM,35.6,10.4,35,30.28,10.0,NNW,17.3,23.0,N/A,,Mostly Cloudy,340,2014-04-13 19:55:00
2:15 PM,35.6,10.4,35,30.27,10.0,NNW,17.3,24.2,N/A,,Overcast,340,2014-04-13 20:15:00
2:35 PM,35.6,12.2,38,30.27,10.0,WNW,15.0,21.9,N/A,,Mostly Cloudy,300,2014-04-13 20:35:00
2:55 PM,37.4,12.2,36,30.26,10.0,NW,15.0,23.0,N/A,,Overcast,320,2014-04-13 20:55:00
3:15 PM,37.4,12.2,36,30.26,10.0,NW,8.1,20.7,N/A,,Mostly Cloudy,310,2014-04-13 21:15:00
3:35 PM,37.4,12.2,36,30.25,10.0,NNW,8.1,-,N/A,,Mostly Cloudy,330,2014-04-13 21:35:00
3:55 PM,37.4,10.4,33,30.25,10.0,NNW,13.8,-,N/A,,Mostly Cloudy,340,2014-04-13 21:55:00
4:15 PM,37.4,10.4,33,30.25,10.0,NW,10.4,-,N/A,,Scattered Clouds,320,2014-04-13 22:15:00
4:35 PM,39.2,12.2,33,30.25,10.0,NW,11.5,-,N/A,,Mostly Cloudy,320,2014-04-13 22:35:00
4:55 PM,37.4,12.2,36,30.25,10.0,NW,12.7,19.6,N/A,,Mostly Cloudy,310,2014-04-13 22:55:00
5:15 PM,39.2,12.2,33,30.24,10.0,WNW,13.8,19.6,N/A,,Mostly Cloudy,300,2014-04-13 23:15:00
5:35 PM,37.4,12.2,36,30.24,10.0,North,9.2,18.4,N/A,,Mostly Cloudy,10,2014-04-13 23:35:00
5:55 PM,37.4,12.2,36,30.24,10.0,NNW,8.1,-,N/A,,Partly Cloudy,330,2014-04-13 23:55:00
6:15 PM,35.6,10.4,35,30.25,10.0,West,5.8,-,N/A,,Partly Cloudy,280,2014-04-14 00:15:00
6:35 PM,37.4,12.2,36,30.24,10.0,NW,10.4,-,N/A,,Scattered Clouds,320,2014-04-14 00:35:00
6:55 PM,37.4,10.4,33,30.24,10.0,North,13.8,23.0,N/A,,Partly Cloudy,350,2014-04-14 00:55:00
7:15 PM,35.6,10.4,35,30.23,10.0,NW,3.5,-,N/A,,Clear,320,2014-04-14 01:15:00
7:35 PM,33.8,10.4,38,30.23,10.0,North,8.1,-,N/A,,Clear,360,2014-04-14 01:35:00
7:55 PM,33.8,10.4,38,30.23,10.0,Calm,Calm,-,N/A,,Clear,0,2014-04-14 01:55:00
8:15 PM,30.2,10.4,44,30.23,10.0,SW,3.5,-,N/A,,Clear,220,2014-04-14 02:15:00
8:35 PM,28.4,10.4,47,30.23,10.0,West,3.5,-,N/A,,Clear,260,2014-04-14 02:35:00
8:55 PM,26.6,14.0,59,30.24,10.0,WNW,6.9,-,N/A,,Partly Cloudy,300,2014-04-14 02:55:00
9:15 PM,28.4,12.2,51,30.24,10.0,WNW,6.9,-,N/A,,Clear,290,2014-04-14 03:15:00
9:35 PM,28.4,12.2,51,30.24,10.0,West,16.1,-,N/A,,Clear,280,2014-04-14 03:35:00
9:55 PM,33.8,15.8,48,30.24,10.0,NW,12.7,-,N/A,,Mostly Cloudy,320,2014-04-14 03:55:00
10:15 PM,33.8,17.6,52,30.24,10.0,NW,12.7,-,N/A,,Mostly Cloudy,310,2014-04-14 04:15:00
10:35 PM,30.2,23.0,75,30.25,6.0,WNW,15.0,24.2,N/A,,Mostly Cloudy,290,2014-04-14 04:35:00
10:55 PM,30.2,21.2,69,30.25,10.0,NW,12.7,-,N/A,,Mostly Cloudy,310,2014-04-14 04:55:00
11:15 PM,30.2,21.2,69,30.25,10.0,WNW,10.4,-,N/A,,Mostly Cloudy,290,2014-04-14 05:15:00
11:35 PM,28.4,21.2,74,30.24,10.0,NW,6.9,-,N/A,,Clear,310,2014-04-14 05:35:00
11:55 PM,26.6,19.4,74,30.24,10.0,NW,8.1,-,N/A,,Scattered Clouds,310,2014-04-14 05:55:00